Location: Davidschlag
(48.4333°N, 14.2833°E)
Time: 18:03:52
(UTC+00:00)

CZ-2C R/B - Pass Details

Date: 27 February 2020
Orbit: 703 x 909 km, 98.1° (Epoch: 05 April)

Event Time Altitude Azimuth Distance (km) Brightness Sun altitude
Exits shadow 19:18:37 - 186° (S) 2,853 5.8 -26.4°
Reaches altitude 10° 19:19:21 10° 188° (S) 2,580 5.6 -26.5°
Maximum altitude 19:24:55 47° 262° (W) 1,165 4.2 -27.3°
Drops below altitude 10° 19:30:21 10° 336° (NNW) 2,519 6.2 -28.2°
Sets 19:32:48 0° 342° (NNW) 3,433 6.9 -28.6°
